Wind_Speed
9 9 7 5 5 5 9 10 9 8 9 12 13 10 13 16 16 16 16 18 18 21 18 19 23 24 22 18 20 11 10 13 17 10 16 17 14 12 13 12 9 9 11
9 9 7 7 5 6 8 11 11 14 15 13 13 15 15 15 18 19 21 19 22 23 21 21 21 18 18 19 19 11 15 19 30 19 17 14 13 14 13 12 12 12 13
11 9 9 8 7 7 8 10 11 13 15 17 17 17 18 18 17 16 16 15 16 20 21 22 22 21 20 17 17 12 12 24 23 26 16 14 13 15 15 15 15 14 12
13 11 10 9 9 8 9 9 8 11 13 15 17 18 19 19 19 17 17 16 17 16 15 16 18 15 14 13 12 14 16 22 19 23 20 18 17 16 16 19 17 15 15
15 13 11 9 11 10 10 10 10 10 13 16 17 17 16 15 16 16 16 17 17 17 16 15 14 12 12 11 9 10 17 19 19 20 18 14 16 17 19 19 20 17 16
18 17 13 11 11 11 11 11 12 12 13 14 15 14 13 12 11 10 10 13 13 13 13 12 11 10 9 8 8 8 11 14 17 21 18 22 23 22 20 19 19 14 7
20 19 16 14 14 13 12 12 13 13 13 13 13 12 11 9 7 6 6 7 9 9 9 9 9 8 7 6 7 8 10 9 10 17 24 23 24 24 23 21 23 23 15
21 20 18 17 16 15 15 15 15 15 14 14 13 11 9 7 7 7 7 8 8 8 8 7 6 7 7 7 9 10 10 12 12 14 14 16 17 16 21 21 20 19 16
23 23 20 19 19 17 17 17 17 17 17 16 14 11 10 9 9 8 8 8 9 9 9 9 8 8 7 7 7 8 8 8 8 10 11 11 12 13 14 17 18 18 9
26 26 24 21 21 20 19 18 17 16 14 13 12 12 11 11 12 11 9 8 8 8 8 7 7 6 6 5 5 4 4 5 6 8 9 10 11 12 15 17 16 20 12
29 28 27 24 23 22 19 19 17 15 14 14 14 14 14 14 13 14 13 11 10 10 11 12 11 10 10 9 9 9 9 9 11 12 13 14 15 16 19 20 21 22 23
33 31 30 27 25 24 23 20 19 18 17 17 17 17 17 17 17 16 16 15 15 17 16 13 11 12 13 14 16 16 16 16 17 18 19 21 22 23 23 22 22 23 23
35 34 32 30 29 27 26 25 22 20 20 19 18 19 19 19 20 20 21 21 21 23 21 21 19 18 17 18 19 18 19 22 22 23 26 30 30 28 25 25 25 24 24
37 36 36 34 33 32 29 29 29 27 26 25 25 26 27 25 25 25 26 27 28 28 28 26 26 27 25 25 24 23 24 25 27 31 33 33 32 29 29 30 30 30 30
38 35 35 36 37 36 35 35 34 34 34 34 35 35 34 33 34 32 30 30 31 29 26 28 30 29 27 26 28 27 25 26 29 31 34 34 34 33 35 33 34 29 26
35 34 34 32 34 33 34 35 38 38 37 38 39 37 36 36 35 32 29 22 17 16 21 27 25 22 22 23 24 25 23 19 27 28 29 30 30 28 27 25 30 27 28
39 38 35 34 31 31 29 28 26 40 41 42 41 43 44 45 38 32 23 18 14 14 19 20 18 17 18 16 15 18 21 22 22 20 22 24 26 27 26 24 23 24 27
40 39 38 38 35 32 32 32 31 26 24 37 41 44 44 39 37 36 23 20 19 19 20 19 17 14 12 15 17 18 15 18 16 15 17 18 20 22 22 22 22 24 25
39 37 38 36 37 36 35 33 32 29 26 29 18 13 7 7 13 17 11 13 14 12 12 10 8 8 4 8 8 8 8 11 13 14 15 17 19 20 23 22 22 24 26
38 41 41 33 33 33 30 29 28 28 22 16 7 4 5 8 12 12 8 4 8 8 5 4 8 7 7 8 8 8 10 11 12 14 16 17 19 19 20 18 18 18 17
31 32 39 30 30 31 30 27 25 24 17 13 12 13 17 23 26 26 27 24 21 19 17 12 11 12 13 12 10 11 11 14 17 18 18 18 17 18 18 18 17 16 15
29 31 37 32 31 28 26 23 18 20 27 32 33 33 31 31 29 27 27 23 20 17 18 16 13 14 14 15 14 14 16 18 18 18 18 18 17 17 17 16 14 11 9
28 27 27 25 24 26 26 26 32 36 35 34 34 30 27 26 26 26 23 30 20 18 21 17 17 17 17 17 17 17 18 18 19 18 19 17 15 14 15 14 12 15 18
31 32 32 30 31 33 35 34 35 34 33 32 28 28 30 28 29 33 29 31 27 24 22 20 19 19 19 18 17 16 15 13 15 15 16 16 15 16 16 15 14 14 19
30 36 39 39 34 35 34 31 33 35 34 37 35 28 33 31 31 30 27 27 26 25 22 20 18 18 19 19 18 15 14 14 15 15 15 14 13 13 14 14 15 15 17
34 37 37 35 30 30 34 32 31 35 34 36 38 36 33 31 31 31 28 26 24 22 20 19 19 18 18 20 21 21 20 18 16 15 15 15 13 13 13 17 20 19 18
Wind_Direction
188 174 165 158 153 114 96 109 108 99 95 107 121 120 123 127 142 149 142 144 146 162 160 162 168 170 174 177 175 170 158 159 126 134 147 157 161 167 167 172 185 187 177
197 183 175 161 156 150 110 107 111 115 105 106 128 131 129 127 129 128 133 129 126 135 143 148 149 155 167 173 176 178 158 163 148 140 151 163 175 174 176 176 166 164 166
189 186 177 175 170 158 136 113 117 119 115 109 110 122 125 128 125 123 123 121 118 124 132 138 142 154 157 164 170 156 159 165 159 160 158 169 162 170 168 169 167 167 167
193 192 184 182 181 170 164 142 124 134 128 130 121 115 115 118 119 121 126 128 124 128 133 138 138 140 141 152 169 181 174 173 172 170 168 169 169 172 178 173 170 174 175
199 201 196 184 184 179 171 162 157 143 142 137 132 129 125 124 124 125 124 125 126 126 127 135 146 148 151 156 158 167 184 178 180 178 171 176 184 185 192 190 193 191 195
200 200 194 184 180 182 179 174 166 160 152 155 150 142 138 135 133 137 151 152 150 147 147 150 154 161 166 171 181 199 200 199 197 189 190 197 202 206 203 202 198 190 211
197 194 190 184 178 181 185 182 178 173 169 163 162 163 161 157 155 161 177 180 176 174 179 180 180 183 186 192 192 200 213 223 234 222 210 215 218 222 217 214 214 213 213
199 193 186 182 181 182 182 182 182 184 185 187 187 187 189 187 194 196 196 191 181 172 166 165 170 170 171 172 179 189 202 214 220 217 226 236 240 240 233 236 232 224 224
202 199 192 185 183 184 189 189 189 189 190 194 198 200 203 197 193 189 187 181 176 173 174 175 178 179 178 179 182 189 194 203 221 233 244 254 253 245 235 223 208 198 210
202 205 202 194 190 190 193 192 192 195 199 201 204 210 213 211 201 198 197 192 190 190 196 206 211 211 217 214 219 234 249 272 272 275 273 263 252 239 231 227 231 209 210
204 205 205 203 200 199 196 199 201 202 206 211 217 220 219 214 211 211 213 215 219 226 230 230 232 240 249 259 267 274 281 285 281 272 264 258 251 242 237 234 232 231 225
204 204 205 206 205 205 205 203 204 206 211 216 221 224 222 219 218 222 228 235 237 243 249 260 266 271 275 281 283 286 285 277 274 272 267 261 256 252 251 248 246 246 242
201 204 206 206 207 209 207 210 210 212 219 224 229 235 235 231 232 234 238 243 249 256 262 268 274 281 283 280 277 274 270 269 268 266 268 270 271 274 269 258 251 246 242
194 200 206 207 207 212 212 214 215 215 220 227 232 238 241 242 244 244 245 248 251 255 261 270 275 275 275 277 275 271 267 265 265 266 269 275 278 273 267 261 255 250 242
190 195 199 205 208 211 215 216 218 223 222 223 229 234 237 243 244 249 254 257 259 262 265 267 267 267 270 273 273 270 268 268 265 270 271 274 276 275 273 268 261 249 239
187 190 197 198 204 205 209 217 226 229 231 235 242 246 248 255 263 267 267 268 275 260 249 252 259 267 271 279 287 285 278 279 288 285 282 282 271 266 266 262 264 248 245
192 191 193 195 198 198 203 207 218 230 235 243 248 252 255 260 265 270 276 279 266 247 240 253 261 268 277 283 294 301 302 312 304 293 296 296 294 288 276 267 263 259 255
197 196 191 194 198 199 204 209 215 222 229 242 248 252 255 255 258 265 263 262 247 238 245 256 271 277 298 301 312 313 321 307 304 311 308 304 302 295 285 277 268 262 261
194 198 197 197 197 201 204 209 214 220 226 239 239 253 284 277 258 258 254 245 250 264 271 277 257 291 8 333 333 339 333 323 333 331 326 322 316 309 301 289 280 275 270
196 201 198 197 196 198 200 204 209 214 218 225 218 181 148 108 89 91 92 92 66 66 55 68 70 74 68 61 46 26 8 1 353 346 342 338 332 323 311 304 292 286 277
197 200 200 196 195 200 202 204 207 204 191 138 120 123 128 117 106 103 93 81 76 72 69 47 71 77 79 71 59 45 33 22 12 2 355 347 346 341 337 324 307 289 281
187 194 195 194 191 184 187 185 171 145 127 117 114 115 115 112 107 101 97 90 90 93 92 88 79 73 71 66 54 42 32 23 11 1 354 349 349 347 341 331 325 312 289
174 172 172 167 162 151 142 139 130 125 123 123 125 121 114 110 108 98 104 100 105 102 99 102 91 78 64 56 47 41 37 30 20 11 13 9 5 1 355 346 339 335 327
158 150 137 129 128 124 122 119 121 122 123 124 122 119 117 113 115 113 111 103 103 98 96 88 78 69 59 50 42 36 31 25 21 20 25 28 27 21 13 0 346 337 332
135 130 129 125 121 120 119 124 129 130 130 125 120 118 113 123 112 104 107 105 102 97 88 80 70 63 56 48 42 34 27 23 20 20 20 16 9 358 353 355 352 338 331
129 127 127 126 129 132 128 127 127 127 126 121 129 129 124 119 116 116 113 109 102 95 91 82 78 71 63 56 49 45 41 36 27 18 12 10 6 358 346 341 336 328 321
Height
795 796 797 797 797 798 798 798 798 797 796 797 798 798 799 801 804 807 809 812 815 818 823 826 830 835 838 842 846 850 850 852 858 868 870 874 876 878 880 882 883 884 885
795 797 798 799 800 801 802 802 802 802 802 801 802 803 804 806 808 810 813 817 819 822 826 829 832 835 841 845 848 850 853 855 857 864 869 873 875 877 879 880 882 884 884
795 797 799 800 801 803 805 806 806 806 806 807 808 809 810 811 813 815 816 819 822 826 830 833 836 840 842 845 848 851 853 857 859 862 867 871 874 875 877 880 881 883 884
794 797 800 802 803 805 807 809 810 811 811 812 813 815 816 817 819 821 823 825 827 830 832 835 838 841 843 846 849 851 855 857 860 863 865 869 872 875 877 878 880 882 882
793 796 799 802 804 806 808 810 812 814 815 817 818 820 821 823 824 826 827 829 831 833 835 838 841 844 846 849 850 852 855 857 860 863 865 868 871 873 873 875 877 878 879
791 795 798 801 804 806 808 811 813 816 818 819 821 823 825 827 828 830 832 833 835 837 839 841 844 846 848 849 851 853 855 857 858 860 863 864 866 868 870 872 874 876 878
788 793 797 800 803 806 809 811 813 816 819 821 823 825 827 829 829 831 834 835 837 838 840 842 844 845 847 849 851 853 854 856 857 859 860 861 863 864 866 868 869 870 870
785 791 795 799 802 805 808 810 813 816 819 821 823 826 827 828 829 831 833 834 836 838 841 842 844 845 847 849 850 852 853 854 856 857 859 860 861 861 862 863 865 867 867
781 787 792 796 800 803 806 809 812 815 818 821 823 824 826 828 829 831 832 834 836 838 840 842 843 845 846 848 850 851 853 853 854 855 856 857 857 858 858 859 860 862 863
776 782 788 792 796 800 804 808 811 814 816 819 821 823 825 827 829 831 832 833 835 836 838 839 841 843 845 847 849 850 851 852 852 852 852 852 852 852 853 854 855 855 856
771 777 783 788 792 797 801 805 808 811 814 817 819 821 824 825 827 828 829 830 832 834 835 837 840 842 844 845 846 847 847 848 848 848 848 848 848 848 848 848 848 847 847
767 773 779 784 789 794 799 802 806 809 812 814 816 818 819 821 823 824 826 827 830 831 831 835 838 840 841 842 842 843 844 844 844 845 845 843 843 843 844 844 845 845 844
763 768 774 780 784 789 794 798 802 805 808 810 812 813 814 816 818 820 822 824 825 826 829 831 833 835 836 837 838 839 839 839 839 839 837 836 837 839 840 840 840 839 839
755 762 768 774 780 785 790 794 797 800 803 806 808 809 809 812 814 815 816 818 821 823 824 827 829 830 831 832 832 833 833 833 833 830 828 828 829 831 831 833 833 833 833
748 755 762 767 773 779 784 787 791 795 797 798 800 801 804 806 805 809 813 815 816 819 822 822 821 821 822 823 822 824 826 826 824 824 825 823 822 823 821 822 823 825 825
740 747 754 760 766 772 777 782 786 789 792 793 795 797 799 801 803 805 807 810 812 814 814 813 813 816 817 817 818 819 818 815 820 820 818 816 814 814 813 813 814 815 814
729 734 744 753 759 765 770 775 779 782 785 788 790 793 794 796 800 802 805 807 808 810 809 810 811 811 813 812 812 813 812 813 816 815 814 812 810 808 808 807 807 807 805
722 728 733 740 748 755 762 767 771 776 779 781 784 786 788 790 793 796 801 803 803 803 805 806 808 808 809 812 813 812 808 813 812 810 808 807 805 804 803 801 800 799 798
714 722 726 731 737 744 750 758 763 769 773 775 778 780 783 786 789 792 795 798 799 801 804 804 805 809 803 809 810 811 811 812 810 807 805 805 803 801 799 797 795 794 793
704 711 719 724 730 737 744 751 756 761 767 772 775 779 782 785 787 790 795 800 799 802 807 807 803 805 807 808 809 810 810 808 807 805 803 801 799 799 795 792 791 791 789
697 707 713 720 724 730 737 743 750 755 761 768 773 777 779 782 788 794 792 797 802 803 806 817 813 810 807 808 809 808 808 807 804 802 800 798 796 794 792 791 790 789 788
692 701 709 713 717 724 732 740 748 756 763 768 777 782 785 786 790 791 792 799 804 809 807 810 815 815 813 810 810 809 806 804 804 802 799 795 793 793 792 791 789 788 788
689 698 707 712 719 725 731 738 747 756 764 770 776 782 786 788 790 795 802 784 807 810 806 818 818 818 813 811 810 808 806 806 803 802 799 796 793 793 792 791 790 788 787
687 695 703 713 720 726 733 741 749 756 765 772 779 780 783 794 798 797 806 799 808 812 813 815 818 817 815 814 812 809 808 807 805 803 799 797 796 794 793 792 791 788 786
695 694 702 711 722 732 740 747 751 756 764 771 780 788 788 800 800 798 805 808 812 814 816 817 818 817 816 815 813 811 810 807 804 803 802 798 796 796 794 792 790 787 784
696 700 706 711 722 731 734 745 754 762 769 772 780 787 791 795 800 805 810 812 813 814 816 817 818 818 818 816 813 811 808 806 805 803 801 800 798 796 794 792 790 788 783